OZ1IEP-5 Jaegerspris DK current weather conditions

sailwx.info

Wind from 276 at 6 knots gusting 13

Air temperature 12.2° C
Dewpoint 9.6° C

Last reported at 2020-Jul-11 04:00 UTC.
Time now 2020-Jul-11 05:11 UTC

Location: N 55°51' E 011°59'.
View on Google Maps.

See reports from other nearby stations

  
Tides and Currents Weather Stations Pressure Air Temp Water Temp Dewpoint Dewpoint Depression Visibility Wind Speed Wind Dir Waves Ship Positions
date/time (UTC)wind fromknots sea level pressurealtimeterstation pressurevisibilityair tempwater tempwave heightnotes
2020-Jul-11 04:00 276 6 gusting 13 12.2
2020-Jul-11 03:50 260 6 gusting 13 12.2
2020-Jul-11 03:40 260 4 gusting 12 12.2
2020-Jul-11 03:30 260 3 gusting 12 12.2
2020-Jul-11 03:20 283 4 gusting 12 12.2
2020-Jul-11 03:10 264 4 gusting 12 12.2
2020-Jul-11 03:00 266 2 gusting 12 12.2
2020-Jul-11 02:50 292 5 gusting 15 12.2
2020-Jul-11 02:40 288 6 gusting 13 12.2
2020-Jul-11 02:30 283 5 gusting 18 12.2
2020-Jul-11 02:20 288 6 gusting 17 12.2
2020-Jul-11 02:10 277 5 gusting 13 12.2
2020-Jul-11 02:00 282 4 gusting 14 12.2
2020-Jul-11 01:50 280 6 gusting 17 12.2
2020-Jul-11 01:40 280 6 gusting 14 12.2
2020-Jul-11 01:30 290 5 gusting 12 12.2
2020-Jul-11 01:20 276 6 gusting 13 12.2
2020-Jul-11 01:10 285 5 gusting 20 12.2
2020-Jul-11 01:00 273 4 gusting 14 12.2
2020-Jul-11 00:50 273 6 gusting 17 12.8
2020-Jul-11 00:40 292 5 gusting 17 12.8
2020-Jul-11 00:30 275 5 gusting 15 12.8
2020-Jul-11 00:20 280 6 gusting 13 12.8
2020-Jul-11 00:10 268 6 gusting 17 12.8
2020-Jul-11 00:00 277 7 gusting 13 12.8
2020-Jul-10 23:50 282 7 gusting 17 12.8
2020-Jul-10 23:40 283 6 gusting 14 12.8
2020-Jul-10 23:30 263 6 gusting 13 12.8
2020-Jul-10 23:20 291 5 gusting 10 12.8
2020-Jul-10 23:10 277 5 gusting 17 12.8
2020-Jul-10 23:00 289 6 gusting 14 12.8
2020-Jul-10 22:50 275 5 gusting 15 12.8
2020-Jul-10 22:40 283 6 gusting 14 12.8
2020-Jul-10 22:30 262 6 gusting 15 13.3
2020-Jul-10 22:20 276 7 gusting 15 13.3
2020-Jul-10 22:10 260 6 gusting 14 13.3
2020-Jul-10 22:00 272 6 gusting 18 13.3
2020-Jul-10 21:50 271 6 gusting 18 13.3
2020-Jul-10 21:40 266 6 gusting 17 13.3
2020-Jul-10 21:30 278 5 gusting 17 13.3
2020-Jul-10 21:20 263 6 gusting 15 13.3
2020-Jul-10 21:10 268 5 gusting 13 13.3
2020-Jul-10 21:00 274 6 gusting 14 12.8
2020-Jul-10 20:50 268 6 gusting 13 12.8
2020-Jul-10 20:40 259 6 gusting 14 13.3
2020-Jul-10 20:30 268 5 gusting 13 13.3
2020-Jul-10 20:20 254 6 gusting 14 13.3
2020-Jul-10 20:10 257 6 gusting 12 13.3
2020-Jul-10 20:00 256 5 gusting 13 13.3
2020-Jul-10 19:50 254 6 gusting 13 13.3
2020-Jul-10 19:40 258 5 gusting 13 13.3
2020-Jul-10 19:30 253 4 gusting 13 13.3
2020-Jul-10 19:20 237 5 gusting 13 13.9
2020-Jul-10 19:10 251 5 gusting 12 13.9
2020-Jul-10 19:00 259 3 gusting 10 13.9
2020-Jul-10 18:50 271 5 gusting 13 13.9
2020-Jul-10 18:40 262 5 gusting 12 13.9
2020-Jul-10 18:30 263 4 gusting 11 14.4
2020-Jul-10 18:20 268 4 gusting 11 14.4
2020-Jul-10 18:10 203 1 gusting 4 14.4
2020-Jul-10 18:00 243 14.4
2020-Jul-10 17:50 217 0 gusting 5 14.4
2020-Jul-10 17:40 190 13.9
2020-Jul-10 17:30 241 1 gusting 7 13.9
2020-Jul-10 17:20 276 2 gusting 6 13.9
2020-Jul-10 17:10 218 0 gusting 4 13.9
2020-Jul-10 17:00 190 0 gusting 4 13.9
2020-Jul-10 16:50 212 0 gusting 2 13.9
2020-Jul-10 16:40 227 0 gusting 4 13.9
2020-Jul-10 16:30 268 13.3
2020-Jul-10 16:20 238 13.3
2020-Jul-10 16:10 234 13.3
2020-Jul-10 16:00 255 13.3
2020-Jul-10 15:50 202 0 gusting 2 13.3
2020-Jul-10 15:40 245 12.8
2020-Jul-10 15:30 245 12.8
2020-Jul-10 15:20 245 12.8
2020-Jul-10 15:10 262 12.8
2020-Jul-10 15:00 262 12.8
2020-Jul-10 14:50 275 0 gusting 2 12.8
2020-Jul-10 14:40 265 1 gusting 5 12.8
2020-Jul-10 14:30 278 0 gusting 4 12.8
2020-Jul-10 14:20 208 12.8
2020-Jul-10 14:10 227 0 gusting 1 12.8
2020-Jul-10 14:00 227 12.2
2020-Jul-10 13:50 255 12.2
2020-Jul-10 13:40 264 1 gusting 8 12.2
2020-Jul-10 13:30 252 2 gusting 8 12.8
2020-Jul-10 13:20 265 0 gusting 7 12.8
2020-Jul-10 13:10 274 1 gusting 5 12.8
2020-Jul-10 13:00 257 1 gusting 6 13.3
2020-Jul-10 12:50 242 0 gusting 5 13.3
2020-Jul-10 12:40 249 1 gusting 2 13.9
2020-Jul-10 12:30 191 0 gusting 2 13.9
2020-Jul-10 12:20 186 13.9
2020-Jul-10 12:10 186 14.4
2020-Jul-10 12:00 185 1 gusting 6 14.4
2020-Jul-10 11:50 172 2 gusting 6 15.0
2020-Jul-10 11:40 164 1 gusting 5 15.0
2020-Jul-10 11:30 195 0 gusting 2 15.6
2020-Jul-10 11:20 195 0 gusting 2 15.6
2020-Jul-10 11:10 180 2 gusting 4 15.6
2020-Jul-10 11:00 202 0 gusting 4 15.6
2020-Jul-10 10:50 141 15.6
2020-Jul-10 10:40 139 15.6
2020-Jul-10 10:30 135 1 gusting 2 15.6
2020-Jul-10 10:20 134 15.6
2020-Jul-10 10:10 134 15.6
2020-Jul-10 10:00 133 0 gusting 2 15.6
2020-Jul-10 09:50 128 0 gusting 4 16.1
2020-Jul-10 09:40 130 2 gusting 4 16.1
2020-Jul-10 09:30 142 16.7
2020-Jul-10 09:20 142 0 gusting 4 16.7
2020-Jul-10 09:10 147 0 gusting 2 17.2
2020-Jul-10 09:00 147 0 gusting 2 17.2
2020-Jul-10 08:50 148 0 gusting 2 17.2
2020-Jul-10 08:40 148 0 gusting 4 17.2
2020-Jul-10 08:30 151 0 gusting 2 16.7
2020-Jul-10 08:20 157 1 gusting 2 16.7
2020-Jul-10 08:10 163 1 gusting 4 16.1
2020-Jul-10 08:00 158 0 gusting 4 15.6
2020-Jul-10 07:50 127 4 gusting 6 15.6
2020-Jul-10 07:40 130 2 gusting 5 15.6
2020-Jul-10 07:30 128 2 gusting 5 15.6
2020-Jul-10 07:20 145 1 gusting 4 15.6
2020-Jul-10 07:10 133 2 gusting 5 15.0
2020-Jul-10 07:00 131 2 gusting 4 15.0
2020-Jul-10 06:50 146 15.0
2020-Jul-10 06:40 148 1 gusting 2 15.0
2020-Jul-10 06:30 164 1 gusting 2 15.0
2020-Jul-10 06:20 191 0 gusting 2 14.4
2020-Jul-10 06:10 201 0 gusting 2 14.4
2020-Jul-10 06:00 203 14.4
2020-Jul-10 05:50 203 14.4
2020-Jul-10 05:40 203 14.4
2020-Jul-10 05:30 222 14.4
2020-Jul-10 05:20 223 14.4
2020-Jul-10 05:10 223 13.9
2020-Jul-10 05:00 223 13.3
2020-Jul-10 04:50 223 13.3
2020-Jul-10 04:40 223 12.8
2020-Jul-10 04:30 223 12.2
2020-Jul-10 04:20 223 11.7
2020-Jul-10 04:10 223 11.1
2020-Jul-10 04:00 223 10.6
2020-Jul-10 03:50 224 10.0
2020-Jul-10 03:40 224 10.0
2020-Jul-10 03:30 224 9.4
2020-Jul-10 03:20 225 9.4
2020-Jul-10 03:10 260 10.0
2020-Jul-10 03:00 268 10.0
2020-Jul-10 02:50 271 10.0
2020-Jul-10 02:40 271 10.0
2020-Jul-10 02:30 271 10.0
2020-Jul-10 02:20 271 10.0
2020-Jul-10 02:10 271 10.0
2020-Jul-10 02:00 343 10.0
2020-Jul-10 01:50 343 10.0
2020-Jul-10 01:40 343 10.0
2020-Jul-10 01:30 161 9.4
2020-Jul-10 01:20 160 9.4
2020-Jul-10 01:10 161 10.0
2020-Jul-10 01:00 161 1 gusting 2 10.0
2020-Jul-10 00:50 092 1 gusting 2 10.0
2020-Jul-10 00:40 081 1 gusting 2 10.0
2020-Jul-10 00:30 081 1 gusting 2 10.6
2020-Jul-10 00:20 068 1 gusting 2 10.6
2020-Jul-10 00:10 065 1 gusting 2 10.6
2020-Jul-10 00:00 059 10.6
2020-Jul-09 23:50 045 10.6
2020-Jul-09 23:40 041 10.6
2020-Jul-09 23:30 041 10.6
2020-Jul-09 23:20 041 0 gusting 2 10.6
2020-Jul-09 23:10 006 10.6
2020-Jul-09 23:00 11.1
2020-Jul-09 22:50 11.1
2020-Jul-09 22:40 11.1
2020-Jul-09 22:30 11.1
2020-Jul-09 22:20 11.1
2020-Jul-09 22:10 359 11.1
2020-Jul-09 22:00 359 11.1
2020-Jul-09 21:50 359 11.7
2020-Jul-09 21:40 359 11.7
2020-Jul-09 21:30 359 11.7
2020-Jul-09 21:20 359 11.7
2020-Jul-09 21:10 359 11.7
2020-Jul-09 21:00 359 12.2
2020-Jul-09 20:50 359 12.2
2020-Jul-09 20:40 359 0 gusting 2 12.2
2020-Jul-09 20:30 359 1 gusting 2 12.8
2020-Jul-09 20:20 359 1 gusting 2 12.8
2020-Jul-09 20:10 359 1 gusting 2 12.8
2020-Jul-09 20:00 359 2 gusting 2 13.3
2020-Jul-09 19:50 359 2 gusting 2 13.3
2020-Jul-09 19:40 359 1 gusting 2 13.9
2020-Jul-09 19:30 359 2 gusting 2 13.9
2020-Jul-09 19:20 359 1 gusting 4 14.4
2020-Jul-09 19:10 359 2 gusting 5 14.4
2020-Jul-09 19:00 15.0
2020-Jul-09 18:50 357 2 gusting 5 15.0
2020-Jul-09 18:40 359 2 gusting 5 15.6
2020-Jul-09 18:30 336 2 gusting 4 15.6
2020-Jul-09 18:20 332 2 gusting 4 15.6
2020-Jul-09 18:10 316 1 gusting 2 15.6
2020-Jul-09 18:00 310 1 gusting 2 15.6
2020-Jul-09 17:50 309 2 gusting 4 16.1
2020-Jul-09 17:40 314 1 gusting 5 16.1
2020-Jul-09 17:30 305 1 gusting 4 16.7
2020-Jul-09 17:20 300 1 gusting 4 16.7
2020-Jul-09 17:10 310 2 gusting 4 16.7
2020-Jul-09 17:00 315 2 gusting 4 16.7
2020-Jul-09 16:50 275 0 gusting 4 16.7
2020-Jul-09 16:40 323 2 gusting 4 16.7
2020-Jul-09 16:30 326 1 gusting 4 16.7
2020-Jul-09 16:20 271 0 gusting 2 16.7
2020-Jul-09 16:10 16.7
2020-Jul-09 16:00 316 1 gusting 5 16.7
2020-Jul-09 15:50 328 1 gusting 6 16.7
2020-Jul-09 15:40 333 4 gusting 6 16.7
2020-Jul-09 15:30 331 5 gusting 7 16.7
2020-Jul-09 15:20 352 3 gusting 7 16.7
2020-Jul-09 15:10 325 5 gusting 7 16.7
2020-Jul-09 15:00 319 4 gusting 10 16.7
2020-Jul-09 14:50 352 2 gusting 8 17.2
2020-Jul-09 14:40 336 1 gusting 6 17.2
2020-Jul-09 14:30 336 2 gusting 10 17.2
2020-Jul-09 14:20 295 3 gusting 10 16.7
2020-Jul-09 14:10 346 1 gusting 10 16.7
2020-Jul-09 14:00 287 2 gusting 10 16.7
2020-Jul-09 13:50 266 2 gusting 7 16.7
2020-Jul-09 13:40 342 4 gusting 10 17.2
2020-Jul-09 13:30 273 3 gusting 8 16.7
2020-Jul-09 13:20 289 2 gusting 12 17.2
2020-Jul-09 13:10 274 1 gusting 5 17.2
2020-Jul-09 13:00 336 2 gusting 6 16.7
2020-Jul-09 12:50 326 4 gusting 10 16.7
2020-Jul-09 12:40 293 0 gusting 6 16.7
2020-Jul-09 12:30 299 4 gusting 6 16.7
2020-Jul-09 12:20 281 1 gusting 6 17.2
2020-Jul-09 12:10 277 4 gusting 6 17.2
2020-Jul-09 12:00 274 1 gusting 6 17.8
2020-Jul-09 11:50 256 1 gusting 5 17.8
2020-Jul-09 11:40 249 2 gusting 7 17.2
2020-Jul-09 11:30 259 1 gusting 6 17.8
2020-Jul-09 11:20 261 2 gusting 6 17.2
2020-Jul-09 11:10 268 2 gusting 6 17.8
2020-Jul-09 11:00 256 2 gusting 6 17.8
2020-Jul-09 10:50 264 2 gusting 10 17.8
2020-Jul-09 10:40 255 3 gusting 7 17.8
2020-Jul-09 10:30 277 2 gusting 6 17.8
2020-Jul-09 10:20 223 1 gusting 5 17.2
2020-Jul-09 10:10 285 0 gusting 5 17.2
2020-Jul-09 10:00 265 1 gusting 8 17.2
2020-Jul-09 09:50 278 2 gusting 8 17.2
2020-Jul-09 09:40 253 2 gusting 8 17.2
2020-Jul-09 09:30 290 2 gusting 6 17.2
2020-Jul-09 09:20 272 3 gusting 7 17.2
2020-Jul-09 09:10 245 0 gusting 2 16.7
2020-Jul-09 09:00 259 2 gusting 5 16.1
2020-Jul-09 08:50 256 1 gusting 5 15.6
2020-Jul-09 08:40 265 1 gusting 5 15.6
2020-Jul-09 08:30 293 1 gusting 7 15.6
2020-Jul-09 08:20 263 1 gusting 6 15.0
2020-Jul-09 08:10 257 0 gusting 4 15.0
2020-Jul-09 08:00 253 2 gusting 6 14.4
2020-Jul-09 07:50 274 1 gusting 6 14.4
2020-Jul-09 07:40 269 2 gusting 6 14.4
2020-Jul-09 07:30 258 0 gusting 10 14.4
2020-Jul-09 07:20 249 1 gusting 6 13.9
2020-Jul-09 07:10 276 1 gusting 5 13.9
2020-Jul-09 07:00 263 2 gusting 10 13.9
2020-Jul-09 06:50 242 1 gusting 6 13.9
2020-Jul-09 06:40 244 1 gusting 6 13.3
2020-Jul-09 06:30 258 1 gusting 6 13.3
2020-Jul-09 06:20 242 2 gusting 6 13.3
2020-Jul-09 06:10 241 2 gusting 10 12.8
2020-Jul-09 06:00 255 2 gusting 6 12.8
2020-Jul-09 05:50 253 2 gusting 6 12.8
2020-Jul-09 05:40 257 1 gusting 4 12.8
2020-Jul-09 05:30 269 2 gusting 6 12.8
2020-Jul-09 05:20 263 1 gusting 4 12.8
2020-Jul-09 05:10 210 12.8
2020-Jul-09 05:00 240 0 gusting 7 12.8